Flag Weather past 2 weeks in Cape Town, South Africa

Now
68 °F

Clear.


Feels Like: 68 °F
Forecast: 62 / 81 °F
Wind: 8 mph from South

Location: Cape Town International Airport

Current Time: Nov 24, 2014 at 10:37:45 PM

Latest Report: Nov 24, 2014 at 10:00 PM


Visibility: 10 mi

Pressure: 30.01 "Hg

Humidity: 56%

Dew point: 52 °F

Location of Cape TownLocation

Historic Weather in Cape Town — Graph

°F

Cape Town temperature yesterday

Maximum temperature yesterday: 73 °F (at 2:00 PM)
Minimum temperature yesterday: 55 °F (at 5:00 AM)
Average temperature yesterday: 65 °F

Past Weeks' High & Low Weather Summary

 TemperatureHumidityPressure
High79 °F (Nov 22, 1:00 PM)94% (Nov 12, 11:00 PM)30.42 "Hg (Nov 12, 11:00 PM)
Low46 °F (Nov 15, 6:00 AM)36% (Nov 18, 12:00 PM)29.65 "Hg (Nov 12, 5:00 PM)
Average65 °F65%30.03 "Hg
* Reported Nov 9 9:00 PM — Nov 24 9:00 PM, Cape Town, Weather by CustomWeather, © 2014

Note: Actual official high and low records may vary slightly from our data, if they occured in-between our weather recording intervals... More about our weather records

Advertising

Cape Town weather history for previous 24 hours

 ConditionsComfort  
Time TempWeatherWind HumidityBarometerVisibility
9:00 PM
Nov 24
70 °FClear.12 mph57%30.01 "Hg10 mi
8:00 PM70 °FPassing clouds.10 mph64%29.98 "HgN/A
7:00 PM72 °FClear.15 mph61%29.98 "Hg10 mi
6:00 PM73 °FSunny.16 mph57%29.98 "Hg10 mi
5:00 PM73 °FSunny.17 mph61%29.98 "Hg10 mi
4:00 PM75 °FPassing clouds.15 mph57%30.01 "HgN/A
3:00 PM75 °FPassing clouds.17 mph57%30.01 "HgN/A
2:00 PM75 °FPassing clouds.18 mph61%30.04 "HgN/A
1:00 PM75 °FPassing clouds.17 mph57%30.04 "HgN/A
12:00 PM75 °FPassing clouds.16 mph54%30.07 "HgN/A
11:00 AM75 °FPassing clouds.13 mph54%30.04 "HgN/A
10:00 AM75 °FPassing clouds.15 mph54%30.07 "HgN/A
9:00 AM70 °FPassing clouds.13 mph64%30.07 "HgN/A
8:00 AM68 °FPassing clouds.10 mph73%30.07 "HgN/A
7:00 AM63 °FPassing clouds.10 mph83%30.07 "HgN/A
6:00 AM61 °FPassing clouds.10 mph88%30.04 "HgN/A
5:00 AM61 °FPassing clouds.10 mph88%30.04 "HgN/A
4:00 AM61 °FPassing clouds.10 mph88%30.04 "HgN/A
3:00 AM61 °FClear.10 mph88%30.04 "Hg10 mi
2:00 AM61 °FClear.13 mph88%30.04 "Hg10 mi
1:00 AM63 °FPassing clouds.9 mph83%30.07 "HgN/A
12:00 AM63 °FPassing clouds.10 mph88%30.07 "HgN/A
11:00 PM
Nov 23
63 °FPassing clouds.12 mph88%30.07 "HgN/A
10:00 PM64 °FPassing clouds.13 mph83%30.07 "HgN/A
Weather by CustomWeather, © 2014

See weather overviewHow to use our weather pages